Showing default

ARASE (ERG), 41896

Orbit data source: Space-Track

ARASE (ERG), 41896 is a payload satellite owned by ISAS/JAXA (JP) in HEO that was launched on Tue, 20 Dec 2016 UTC via an EPSILON launch vehicle from the Kagoshima Space Center University Of Tokyo (KSCUT). Payload-class satellites include a variety of spacecraft equipped with specific instruments for various scientific and technological missions. These include communications satellites like Starlink; space stations such as the ISS; scientific satellites like the Hubble; Earth observation satellites from companies like Planet Labs, Umbra, and HawkEye 360; GPS; miniature CubeSats for education and research; and military/defense satellites.

Loading next visibility...
Identifier
41896, 2016-080A
Orbit
HEO
Country
Flag of JPJP / JPN
Related business
Manufacturer
ISAS/JAXA
Mission
Operational Civil Science
Bus & Motor
SPRINT-B, Unknown motor
Mass
350 kg wet, 350 kg dry
Launch date (UTC)
2016-12-20 (10 years ago)
Launch vehicle
EPSILON
Launch site
Kagoshima Space Center University Of Tokyo (KSCUT)
Object type
Payload
Rocket body
Debris
Shape & HBR
Box + 4 Pan + 6 Ant, 3.0 m
Radar Cross Section
33.836 m², Large (>1 m²)

Expand to show TLE details & history
Last TLE update: 2 days ago

TLE from 2 days ago
0 ARASE (ERG)
1 41896U 16080A   26171.06374014  .00000373  00000-0  12610-2 0  9990
2 41896  31.9589   7.1711 6989616  49.1841 353.2076  2.57712476 88355
Epoch: 2026-06-20T01:31Z
TLE epoch observation values (Epoch: 2026-06-20T01:31:47.148Z)
Latitude
-0.00046°
Longitude
75.93936°
Altitude
1,500.703 km
Speed
9.135 km/s
True Right ascension
00h 28m 40s
True Declination
0° 00' 02"
Sunlit
Object was in daylight at epoch
Visualization orbit readout
Latitude
Unknown
Longitude
Unknown
Altitude
Unknown
Speed
Unknown
Apparent Right ascension
Unknown
Apparent Declination
Unknown
Sunlit
N/A
Visualization observer readout
Local Sidereal Time
21:38:00
Azimuth
Unknown
Elevation
Unknown
Doppler factor
Unknown
Orbital elements
Apogee altitude
31,806.507 km
Perigee altitude
387.786 km
Semi-major axis
22,475.284 km
Eccentricity
0.69896
Inclination
31.9589°
RAAN
7.1711°
Arg. of periapsis
49.1841°
True anomaly
311.62282°
Mean anomaly
353.2076°
Eccentric anomaly
338.5862°
Mean motion
0.64415 °/min
Orbital period
558.88 mins
BSTAR
0.001261
Loading maneuver chart data...
Computing Atmospheric mass density...
Loading historical data...
Loading historical data...
Loading historical data...
Loading historical data...
Loading historical data...
Loading historical data...
Loading historical data...
Other satellites on launch #80 in the year 2016 (2016-12-20 UTC)

Documentation

Showing up to 5 results
|